This is the latest recevied weather packets stored in our database for station/object KE8ZLU. If no packets are shown the sender has not sent any weather packets the latest 1 day(s).
| Time | Temp. | Humidity | Pressure | Rain* | Wind** | Luminosity | Snow |
|---|---|---|---|---|---|---|---|
| 1778037796 | 7.78° C | 65% | 1010.8 hPa | 0 mm | - | 0 W/m² | - |
| 1778037493 | 8.33° C | 64% | 1010.7 hPa | 0 mm | - | 0 W/m² | - |
| 1778037190 | 7.78° C | 64% | 1010.4 hPa | 0 mm | - | 0 W/m² | - |
| 1778036888 | 8.33° C | 64% | 1010.4 hPa | 0 mm | - | 0 W/m² | - |
| 1778036586 | 8.33° C | 65% | 1010.4 hPa | 0 mm | - | 0 W/m² | - |
| 1778036282 | 8.33° C | 64% | 1010.4 hPa | 0 mm | - | 0 W/m² | - |
| 1778035676 | 8.33° C | 61% | 1010.6 hPa | 0 mm | - | 0 W/m² | - |
| 1778035372 | 8.33° C | 62% | 1010.5 hPa | 0 mm | - | 0 W/m² | - |
| 1778035068 | 8.33° C | 62% | 1010.5 hPa | 0 mm | - | 0 W/m² | - |
| 1778034766 | 8.33° C | 62% | 1010.3 hPa | 0 mm | - | 0 W/m² | - |
| 1778034462 | 8.33° C | 61% | 1010.4 hPa | 0 mm | - | 0 W/m² | - |
| 1778034160 | 8.33° C | 60% | 1010.3 hPa | 0 mm | - | 0 W/m² | - |
| 1778033858 | 8.33° C | 61% | 1010.5 hPa | 0 mm | - | 0 W/m² | - |
| 1778033555 | 8.33° C | 61% | 1010.2 hPa | 0 mm | - | 0 W/m² | - |
| 1778032647 | 8.33° C | 59% | 1010.3 hPa | 0 mm | - | 0 W/m² | - |
| 1778032041 | 8.33° C | 61% | 1010.3 hPa | 0 mm | - | 0 W/m² | - |
| 1778031737 | 8.89° C | 60% | 1010.3 hPa | 0 mm | - | 0 W/m² | - |
| 1778031435 | 8.89° C | 60% | 1010.2 hPa | 0 mm | - | 0 W/m² | - |
| 1778031132 | 8.89° C | 59% | 1010 hPa | 0 mm | - | 0 W/m² | - |
| 1778030828 | 8.89° C | 59% | 1009.8 hPa | 0 mm | - | 0 W/m² | - |
| 1778030525 | 8.89° C | 57% | 1009.8 hPa | 0 mm | - | 0 W/m² | - |
| 1778030222 | 8.89° C | 58% | 1009.8 hPa | 0 mm | - | 0 W/m² | - |
| 1778029918 | 8.89° C | 58% | 1010 hPa | 0 mm | - | 0 W/m² | - |
| 1778029617 | 8.89° C | 57% | 1009.6 hPa | 0 mm | - | 0 W/m² | - |
| 1778029314 | 8.89° C | 57% | 1009.7 hPa | 0 mm | - | 0 W/m² | - |
* Rain latest hour (hover to see other rain measurements)
** Current wind speed in m/s (hover to see current wind gust speed)